Weather in Man

Côte d'Ivoire     7°24′20″N   7°33′13″W
temp.,
°C
wind,
m/s
gust,
m/s
humid.,
%
clouds,
%
prec.,
mm/h
press.,
hPa
HPBL,
m
18 september, sat
sat1800:00+20wnw1198100 0.4 101414
03:00+20wnw1199100 0.0 101223
06:00+20nw119948 0.0 101313
09:00+23se119470 1.3 1014125
12:00+26sse118126 4.3 1013711
15:00+28nne227564 1.3 10101102
18:00+23e11957 3.6 101213
21:00+21ne11985 1.4 101412
19 september, sun
sun1900:00+20s119955 3.4 101419
03:00+20sw1110080 0.3 101229
06:00+20sw1110055 0.9 101349
09:00+23ssw119056 0.0 1015416
12:00+28sse126444 0.4 10131272
15:00+25se128996 2.1 1012359
18:00+23se119560 4.4 101213
21:00+21wsw00985 0.5 101411
20 september, mon
mon2000:00+20ssw119937 0.6 101525
03:00+20wsw11100100 1.4 101346
06:00+20wsw1110036 1.4 101417
09:00+24sw118646 0.0 1016480
12:00+30s125129 0.2 10131691
15:00+29nnw026379 1.9 10101297
18:00+23wsw11934 4.4 101211
21:00+21sw009730 3.4 101512
21 september, tue
tue2100:00+20sw119916 3.5 101518
03:00+20wsw119934 0.0 101339
06:00+19w1110049 0.0 101452
09:00+23w118822 0.0 1015351
12:00+30sse125530 0.2 10131534
15:00+29nnw126187 0.9 10101431
18:00+23wnw118679 2.4 101116
21:00+21wnw119266 0.3 101311
22 september, wed
wed2200:00+21wsw1195100 0.4 101420
03:00+20wsw1199100 0.1 101351
06:00+20sw1299100 0.1 1013125
09:00+23w1189100 0.1 1015454
12:00+25n1288100 2.0 1014694
15:00+25n1387100 3.6 1011649
18:00+23n1193100 5.3 101125
21:00+21nnw1197100 3.8 101411